Regional Weather Roundup
Issued by NWS

Home | Current Version | Previous Version | Graphics & Text | Print | Product List | Glossary On
Versions: 1 2 3 4 5 6 7 8 9 10 11 12 13 14 15 16 17 18 19 20 21 22 23 24 25 26 27 28 29 30 31 32 33 34 35 36 37 38 39 40 41 42 43 44 45 46 47 48 49 50
000
ASUS43 KDTX 180210
RWRMI
MICHIGAN HOURLY REGIONAL WEATHER ROUNDUP
NATIONAL WEATHER SERVICE DETROIT/PONTIAC MI
900 PM EST WED JAN 17 2018

NOTE: "FAIR" INDICATES FEW OR NO CLOUDS BELOW 12,000 FEET WITH NO
SIGNIFICANT WEATHER AND/OR OBSTRUCTION TO VISIBILITY.

MIZ047>049-052>055-059>063-066>070-074>076-081>083-180300-
SOUTHEAST LOWER MICHIGAN

CITY           SKY/WX    TMP DP  RH WIND       PRES   REMARKS
ADRIAN         FAIR      15   8  73 SW12G20   30.27F WCI   2
ALMA           FAIR      24  15  68 SW13G25   30.11F WCI  13
ANN ARBOR      FAIR      17   8  67 S13       30.23F WCI   4
BAD AXE        FAIR      23  14  68 SW17G24   30.05F WCI   9
CARO           FAIR      23  15  69 SW18G28   30.08F WCI   9
DETROIT CITY   FAIR      19  11  70 SW16      30.22F WCI   4
DETROIT        MOCLDY    19   9  65 SW18      30.25F WCI   4
FLINT          FAIR      21  13  71 SW16G23   30.15F WCI   7
GROSSE ILE     FAIR      18  10  70 SW10G21   30.25F WCI   7
HILLSDALE      FAIR      18   7  62 SW13G18   30.22F WCI   4
HOWELL         FAIR      20  12  72 SW12G20   30.18F WCI   8

CITY           SKY/WX    TMP DP  RH WIND       PRES   REMARKS
JACKSON        FAIR      17   8  67 SW18      30.21F WCI   1
LAMBERTVILLE   FAIR      17   9  69 SW12G21   30.28F WCI   4
LANSING        FAIR      21  13  71 SW16      30.18F WCI   7
LAPEER         FAIR      22  13  66 W16G25    30.12F WCI   9
MASON          FAIR      21   8  58 SW10G17   30.19F WCI  10
MONROE         FAIR      17   8  67 SW15G21   30.26F WCI   2
MT. CLEMENS    CLOUDY    23  12  62 SW17G25   30.15F WCI   9
PONTIAC        MOCLDY    20  12  71 SW15G21   30.16F WCI   6
PORT HOPE        N/A     24  14  65 SW16G29   30.00F WCI  11
PORT HURON     FAIR      19  12  73 S10G17    30.16F WCI   8
TRI CITIES     FAIR      24  17  74 SW25G32   30.08F WCI   8
MIDLAND        FAIR      26  16  65 SW15G28   30.07F WCI  14
TROY           FAIR      22  13  71 SW16      30.21F WCI   8
SAGINAW HB     FAIR      25  18  74 SW20G35   30.09F WCI  11
$$
MIZ043>046-050>051-056>058-064>065-071>073-077>080-180300-
SOUTHWEST LOWER MICHIGAN

CITY           SKY/WX    TMP DP  RH WIND       PRES   REMARKS
BATTLE CREEK   FAIR      18   9  68 SW22G29   30.23F WCI   1
BENTON HARBOR  FAIR      20  11  68 SW18G26   30.28F WCI   5
BIG RAPIDS     FAIR      23  13  66 SW15G24   30.07F WCI  10
COLDWATER      FAIR      15   9  76 SW15G21   30.27F WCI   0
FREMONT        FAIR      24  11  59 SW16G23   30.12F WCI  11
HOLLAND        FAIR      25  16  68 SW24G35   30.21F WCI   9
GRAND RAPIDS   FAIR      23  15  71 SW24      30.17F WCI   7
IONIA          FAIR      23  15  74 SW20G26   30.14F WCI   8
KALAMAZOO      FAIR      18   7  62 SW15      30.26F WCI   4
LUDINGTON      FAIR      25  18  76 SW22G31   30.08F HAZE    WCI  10
MARSHALL       FAIR      17   8  68 SW16      30.23F WCI   1
MOUNT PLEASANT FAIR      26  15  62 SW20G25   30.07F WCI  13
MUSKEGON       MOCLDY    26  15  63 SW28G39   30.17F WCI  10
SOUTH HAVEN    FAIR      24  17  75 SW15G29   30.26F WCI  11
$$
MIZ016>042-180300-
NORTHERN LOWER MICHIGAN

CITY           SKY/WX    TMP DP  RH WIND       PRES   REMARKS
ALPENA         FAIR      24  11  57 SW14G21   29.90F WCI  12
BEAVER ISLAND  FAIR      29  18  64 SW26G38   29.90R WCI  14
BELLAIRE       FAIR      25  17  73 SW13G24   29.96F WCI  13
CADILLAC       FAIR      19  14  78 SW22G29   29.97F WCI   3
CHARLEVOIX     FAIR      27  17  67 SW15G23   29.96R WCI  15
FRANKFORT      FAIR      29  18  64 SW16G26   30.01F HAZE    WCI  17
GAYLORD        FAIR      20  13  74 SW21G32   29.88F WCI   4
GRAYLING       FAIR      21  10  62 SW6       29.95F WCI  13
HARBOR SPRINGS FAIR      26  18  71 SW17G24   29.90F WCI  13
HOUGHTON LAKE  FAIR      21  12  68 SW14G22   29.98F WCI   8
MANISTEE       FAIR      25  17  72 SW13G23   30.05F WCI  14
OSCODA         FAIR      23  13  63 SW22G29   29.95F WCI   8
PELLSTON       FAIR      26  16  65 SW15G26   29.89S WCI  14
ROGERS CITY    FAIR      24  11  58 SW14G23   29.88R WCI  12
TRAVERSE CITY  FAIR      26  15  63 SW13G22   29.96F WCI  15
$$
MIZ007>008-015-180300-
EASTERN UPPER MICHIGAN

CITY           SKY/WX    TMP DP  RH WIND       PRES   REMARKS
KINROSS        FAIR      24  18  77 W15G25    29.84F WCI  11
MACKINAC ISLAN FAIR      27  21  77 SW20G35   29.87S WCI  14
NEWBERRY       FAIR      20  12  71 SW12      29.84S WCI   8
S. S. MARIE    FAIR      23  14  68 W9        29.83F WCI  13
MUNISING         N/A     20  10  65 SW13      29.84S WCI   7
$$
MIZ004>006-011>014-085-180300-
CENTRAL UPPER MICHIGAN

CITY           SKY/WX    TMP DP  RH WIND       PRES   REMARKS
MANISTIQUE     FAIR      22  10  58 SW10G23   29.88S WCI  11
ESCANABA       FAIR      15   7  70 S7        29.89S WCI   5
MENOMINEE      FAIR      22   9  57 W9G17     29.94R WCI  12
SAWYER-GWINN   CLEAR     23   7  50 W13       29.80F WCI  11
$$
MIZ001>003-009>011-084-180300-
WESTERN UPPER MICHIGAN

CITY           SKY/WX    TMP DP  RH WIND       PRES   REMARKS
IRON MOUNTAIN  FAIR      24   7  48 W10       29.83F WCI  14
HOUGHTON       FAIR      28  15  58 W18G32    29.78R WCI  15
COPPER HARBOR    N/A     31  19  61 NW15G30   29.79R WCI  20
IRONWOOD       FAIR      23  11  60 SW13      29.88R WCI  11
$$

ABBREVIATIONS USED IN REMARKS
   TC - TEMPERATURE IN CELSIUS
  WCI - WIND CHILL INDEX
   HX - HEAT INDEX
  VSB - VISIBILITY





USA.gov is the U.S. government's official web portal to all federal, state and local government web resources and services.